Time,TemperatureF,DewpointF,PressureIn,WindDirection,WindDirectionDegrees,WindSpeedMPH,WindSpeedGustMPH,Humidity,HourlyPrecipIn,Conditions,Clouds,dailyrainin,SoftwareType,DateUTC
2013-08-24 00:08:00,66.5,58.0,25.59,West,262,6.0,6.0,75,0.00,,,0.00,weatherlink.com 1.10,2013-08-24 06:08:00,
2013-08-24 00:23:00,67.1,59.0,25.60,NW,306,5.0,14.0,74,0.00,,,0.00,weatherlink.com 1.10,2013-08-24 06:23:00,
2013-08-24 00:38:00,67.0,58.0,25.60,NW,312,4.0,5.0,74,0.00,,,0.00,weatherlink.com 1.10,2013-08-24 06:38:00,
2013-08-24 00:53:00,68.2,58.0,25.60,NNW,333,5.0,8.0,69,0.00,,,0.00,weatherlink.com 1.10,2013-08-24 06:53:00,
2013-08-24 01:08:00,69.7,56.0,25.60,NNW,337,4.0,7.0,63,0.00,,,0.00,weatherlink.com 1.10,2013-08-24 07:08:00,
2013-08-24 01:23:00,65.1,56.0,25.61,West,268,3.0,4.0,73,0.00,,,0.00,weatherlink.com 1.10,2013-08-24 07:23:00,
2013-08-24 01:38:00,63.5,55.0,25.61,West,266,4.0,4.0,75,0.00,,,0.00,weatherlink.com 1.10,2013-08-24 07:38:00,
2013-08-24 01:53:00,62.9,55.0,25.61,WNW,288,2.0,4.0,75,0.00,,,0.00,weatherlink.com 1.10,2013-08-24 07:53:00,
2013-08-24 02:08:00,62.9,55.0,25.61,NW,304,2.0,3.0,74,0.00,,,0.00,weatherlink.com 1.10,2013-08-24 08:08:00,
2013-08-24 02:23:00,62.0,54.0,25.61,West,271,2.0,2.0,75,0.00,,,0.00,weatherlink.com 1.10,2013-08-24 08:23:00,
2013-08-24 02:38:00,61.7,54.0,25.61,West,260,2.0,4.0,77,0.00,,,0.00,weatherlink.com 1.10,2013-08-24 08:38:00,
2013-08-24 02:53:00,60.0,54.0,25.61,WSW,258,2.0,4.0,81,0.00,,,0.00,weatherlink.com 1.10,2013-08-24 08:53:00,
2013-08-24 03:08:00,59.3,54.0,25.61,West,264,4.0,4.0,82,0.00,,,0.00,weatherlink.com 1.10,2013-08-24 09:08:00,
2013-08-24 03:23:00,59.6,54.0,25.61,West,266,3.0,6.0,82,0.00,,,0.00,weatherlink.com 1.10,2013-08-24 09:23:00,
2013-08-24 03:38:00,59.7,54.0,25.61,WSW,248,1.0,3.0,81,0.00,,,0.00,weatherlink.com 1.10,2013-08-24 09:38:00,
2013-08-24 03:53:00,59.6,53.0,25.61,WSW,243,0.0,2.0,80,0.00,,,0.00,weatherlink.com 1.10,2013-08-24 09:53:00,
2013-08-24 04:09:00,59.3,53.0,25.61,West,264,1.0,4.0,80,0.00,,,0.00,weatherlink.com 1.10,2013-08-24 10:09:00,
2013-08-24 04:24:00,58.9,53.0,25.61,WSW,246,3.0,5.0,81,0.00,,,0.00,weatherlink.com 1.10,2013-08-24 10:24:00,
2013-08-24 04:39:00,58.2,53.0,25.60,West,281,2.0,3.0,82,0.00,,,0.00,weatherlink.com 1.10,2013-08-24 10:39:00,
2013-08-24 04:54:00,57.9,53.0,25.60,SW,230,1.0,4.0,83,0.00,,,0.00,weatherlink.com 1.10,2013-08-24 10:54:00,
2013-08-24 05:09:00,58.1,53.0,25.61,WSW,242,1.0,3.0,82,0.00,,,0.00,weatherlink.com 1.10,2013-08-24 11:09:00,
2013-08-24 05:24:00,57.9,52.0,25.61,SSW,201,2.0,3.0,82,0.00,,,0.00,weatherlink.com 1.10,2013-08-24 11:24:00,
2013-08-24 05:39:00,57.2,52.0,25.60,SW,231,3.0,4.0,83,0.00,,,0.00,weatherlink.com 1.10,2013-08-24 11:39:00,
2013-08-24 05:54:00,56.7,52.0,25.60,WNW,289,1.0,2.0,84,0.00,,,0.00,weatherlink.com 1.10,2013-08-24 11:54:00,
2013-08-24 06:09:00,55.8,51.0,25.60,West,263,3.0,3.0,85,0.00,,,0.00,weatherlink.com 1.10,2013-08-24 12:09:00,
2013-08-24 06:24:00,56.4,52.0,25.61,WNW,284,2.0,5.0,84,0.00,,,0.00,weatherlink.com 1.10,2013-08-24 12:24:00,
2013-08-24 06:39:00,56.8,52.0,25.62,WSW,238,4.0,6.0,85,0.00,,,0.00,weatherlink.com 1.10,2013-08-24 12:39:00,
2013-08-24 06:54:00,58.6,53.0,25.63,WSW,245,7.0,7.0,82,0.00,,,0.00,weatherlink.com 1.10,2013-08-24 12:54:00,
2013-08-24 07:09:00,59.4,53.0,25.64,WSW,252,6.0,10.0,79,0.00,,,0.00,weatherlink.com 1.10,2013-08-24 13:09:00,
2013-08-24 07:24:00,61.3,53.0,25.64,WSW,242,5.0,9.0,75,0.00,,,0.00,weatherlink.com 1.10,2013-08-24 13:24:00,
2013-08-24 07:39:00,64.3,54.0,25.64,WSW,246,6.0,8.0,69,0.00,,,0.00,weatherlink.com 1.10,2013-08-24 13:39:00,
2013-08-24 07:54:00,66.7,54.0,25.64,West,259,7.0,9.0,63,0.00,,,0.00,weatherlink.com 1.10,2013-08-24 13:54:00,
2013-08-24 08:09:00,69.2,55.0,25.64,WSW,250,7.0,8.0,60,0.00,,,0.00,weatherlink.com 1.10,2013-08-24 14:09:00,
2013-08-24 08:24:00,71.6,54.0,25.64,WSW,245,5.0,7.0,54,0.00,,,0.00,weatherlink.com 1.10,2013-08-24 14:24:00,
2013-08-24 08:39:00,74.2,53.0,25.64,WSW,240,3.0,6.0,48,0.00,,,0.00,weatherlink.com 1.10,2013-08-24 14:39:00,
2013-08-24 08:54:00,75.8,53.0,25.63,SSW,212,3.0,7.0,45,0.00,,,0.00,weatherlink.com 1.10,2013-08-24 14:54:00,
2013-08-24 09:09:00,77.3,54.0,25.64,WSW,245,7.0,8.0,44,0.00,,,0.00,weatherlink.com 1.10,2013-08-24 15:09:00,
2013-08-24 09:39:00,80.1,53.0,25.64,West,276,5.0,11.0,39,0.00,,,0.00,weatherlink.com 1.10,2013-08-24 15:39:00,
2013-08-24 10:09:00,81.5,53.0,25.64,WNW,301,6.0,10.0,37,0.00,,,0.00,weatherlink.com 1.10,2013-08-24 16:09:00,
2013-08-24 10:24:00,81.3,52.0,25.64,West,281,5.0,10.0,36,0.00,,,0.00,weatherlink.com 1.10,2013-08-24 16:24:00,
2013-08-24 10:39:00,82.5,52.0,25.64,NNW,345,4.0,10.0,35,0.00,,,0.00,weatherlink.com 1.10,2013-08-24 16:39:00,
2013-08-24 10:55:00,83.2,51.0,25.64,NNW,334,4.0,10.0,33,0.00,,,0.00,weatherlink.com 1.10,2013-08-24 16:55:00,
2013-08-24 11:10:00,84.5,51.0,25.64,WSW,238,3.0,5.0,31,0.00,,,0.00,weatherlink.com 1.10,2013-08-24 17:10:00,
2013-08-24 11:25:00,84.9,51.0,25.64,ENE,60,3.0,7.0,31,0.00,,,0.00,weatherlink.com 1.10,2013-08-24 17:25:00,
2013-08-24 11:40:00,86.1,50.0,25.63,East,80,6.0,8.0,29,0.00,,,0.00,weatherlink.com 1.10,2013-08-24 17:40:00,
2013-08-24 11:55:00,86.5,50.0,25.63,NE,50,2.0,8.0,28,0.00,,,0.00,weatherlink.com 1.10,2013-08-24 17:55:00,
2013-08-24 12:10:00,89.1,51.0,25.63,ENE,77,3.0,5.0,27,0.00,,,0.00,weatherlink.com 1.10,2013-08-24 18:10:00,
2013-08-24 12:25:00,89.7,51.0,25.62,ESE,121,7.0,11.0,26,0.00,,,0.00,weatherlink.com 1.10,2013-08-24 18:25:00,
2013-08-24 12:40:00,89.2,50.0,25.62,ESE,122,7.0,15.0,26,0.00,,,0.00,weatherlink.com 1.10,2013-08-24 18:40:00,
2013-08-24 12:55:00,89.8,51.0,25.62,SSW,197,0.0,9.0,26,0.00,,,0.00,weatherlink.com 1.10,2013-08-24 18:55:00,
2013-08-24 13:10:00,90.2,50.0,25.61,NNE,13,4.0,6.0,25,0.00,,,0.00,weatherlink.com 1.10,2013-08-24 19:10:00,
2013-08-24 13:25:00,92.2,49.0,25.61,SW,236,6.0,10.0,23,0.00,,,0.00,weatherlink.com 1.10,2013-08-24 19:25:00,
2013-08-24 13:40:00,90.6,49.0,25.61,ENE,72,0.0,9.0,24,0.00,,,0.00,weatherlink.com 1.10,2013-08-24 19:40:00,
2013-08-24 13:55:00,91.9,49.0,25.61,East,95,3.0,8.0,23,0.00,,,0.00,weatherlink.com 1.10,2013-08-24 19:55:00,
2013-08-24 14:10:00,92.8,49.0,25.61,NE,54,4.0,7.0,22,0.00,,,0.00,weatherlink.com 1.10,2013-08-24 20:10:00,
2013-08-24 14:25:00,92.6,50.0,25.61,WSW,248,8.0,12.0,23,0.00,,,0.00,weatherlink.com 1.10,2013-08-24 20:25:00,
2013-08-24 14:40:00,92.8,49.0,25.60,WSW,245,4.0,7.0,22,0.00,,,0.00,weatherlink.com 1.10,2013-08-24 20:40:00,
2013-08-24 14:55:00,93.7,47.0,25.59,ESE,113,5.0,8.0,20,0.00,,,0.00,weatherlink.com 1.10,2013-08-24 20:55:00,
2013-08-24 15:10:00,93.5,48.0,25.59,South,169,9.0,15.0,21,0.00,,,0.00,weatherlink.com 1.10,2013-08-24 21:10:00,
2013-08-24 15:25:00,93.5,48.0,25.59,ESE,113,2.0,7.0,21,0.00,,,0.00,weatherlink.com 1.10,2013-08-24 21:25:00,
2013-08-24 15:40:00,93.1,49.0,25.59,East,101,8.0,16.0,22,0.00,,,0.00,weatherlink.com 1.10,2013-08-24 21:40:00,
2013-08-24 15:55:00,92.5,47.0,25.59,ESE,108,5.0,11.0,21,0.00,,,0.00,weatherlink.com 1.10,2013-08-24 21:55:00,
2013-08-24 16:10:00,91.1,48.0,25.59,ESE,104,5.0,9.0,23,0.00,,,0.00,weatherlink.com 1.10,2013-08-24 22:10:00,
2013-08-24 16:25:00,90.7,49.0,25.59,SE,135,4.0,7.0,24,0.00,,,0.00,weatherlink.com 1.10,2013-08-24 22:25:00,
2013-08-24 16:40:00,91.6,48.0,25.59,ENE,57,0.0,3.0,22,0.00,,,0.00,weatherlink.com 1.10,2013-08-24 22:40:00,
2013-08-24 16:55:00,91.0,48.0,25.59,NNW,328,2.0,9.0,23,0.00,,,0.00,weatherlink.com 1.10,2013-08-24 22:55:00,
2013-08-24 17:10:00,90.5,49.0,25.58,ENE,60,6.0,7.0,24,0.00,,,0.00,weatherlink.com 1.10,2013-08-24 23:10:00,
2013-08-24 17:25:00,88.8,52.0,25.58,NE,41,4.0,7.0,28,0.00,,,0.00,weatherlink.com 1.10,2013-08-24 23:25:00,
2013-08-24 17:40:00,88.7,51.0,25.59,NNE,30,3.0,4.0,27,0.00,,,0.00,weatherlink.com 1.10,2013-08-24 23:40:00,
2013-08-24 17:55:00,86.3,52.0,25.59,NW,318,11.0,19.0,31,0.00,,,0.00,weatherlink.com 1.10,2013-08-24 23:55:00,
2013-08-24 18:10:00,85.4,50.0,25.59,NNW,347,8.0,14.0,29,0.00,,,0.00,weatherlink.com 1.10,2013-08-25 00:10:00,
2013-08-24 18:25:00,84.7,52.0,25.59,NNW,347,11.0,15.0,32,0.00,,,0.00,weatherlink.com 1.10,2013-08-25 00:25:00,
2013-08-24 18:40:00,85.2,50.0,25.59,NNW,330,6.0,14.0,30,0.00,,,0.00,weatherlink.com 1.10,2013-08-25 00:40:00,
2013-08-24 18:55:00,83.7,52.0,25.60,NW,323,13.0,22.0,34,0.00,,,0.00,weatherlink.com 1.10,2013-08-25 00:55:00,
2013-08-24 19:10:00,82.8,51.0,25.59,NNW,332,5.0,13.0,33,0.00,,,0.00,weatherlink.com 1.10,2013-08-25 01:10:00,
2013-08-24 19:25:00,82.2,50.0,25.59,North,6,7.0,10.0,33,0.00,,,0.00,weatherlink.com 1.10,2013-08-25 01:25:00,
2013-08-24 19:40:00,80.5,52.0,25.60,NNW,335,3.0,6.0,37,0.00,,,0.00,weatherlink.com 1.10,2013-08-25 01:40:00,
2013-08-24 19:55:00,79.2,52.0,25.60,North,3,3.0,4.0,39,0.00,,,0.00,weatherlink.com 1.10,2013-08-25 01:55:00,
2013-08-24 20:10:00,77.8,52.0,25.61,NW,304,3.0,4.0,41,0.00,,,0.00,weatherlink.com 1.10,2013-08-25 02:10:00,
2013-08-24 20:25:00,75.3,55.0,25.61,NW,324,7.0,9.0,49,0.00,,,0.00,weatherlink.com 1.10,2013-08-25 02:25:00,
2013-08-24 20:41:00,76.3,55.0,25.63,NNW,332,9.0,14.0,48,0.00,,,0.00,weatherlink.com 1.10,2013-08-25 02:41:00,
2013-08-24 20:56:00,77.8,52.0,25.63,NNW,332,5.0,10.0,40,0.00,,,0.00,weatherlink.com 1.10,2013-08-25 02:56:00,
2013-08-24 21:11:00,78.3,51.0,25.64,NW,324,7.0,12.0,39,0.00,,,0.00,weatherlink.com 1.10,2013-08-25 03:11:00,
2013-08-24 21:26:00,76.2,53.0,25.63,NNW,338,6.0,8.0,44,0.00,,,0.00,weatherlink.com 1.10,2013-08-25 03:26:00,
2013-08-24 21:41:00,74.5,53.0,25.64,NNW,342,4.0,5.0,47,0.00,,,0.00,weatherlink.com 1.10,2013-08-25 03:41:00,
2013-08-24 21:56:00,73.7,53.0,25.64,NNW,333,3.0,4.0,49,0.00,,,0.00,weatherlink.com 1.10,2013-08-25 03:56:00,
2013-08-24 22:11:00,74.0,54.0,25.64,NNE,15,3.0,4.0,49,0.00,,,0.00,weatherlink.com 1.10,2013-08-25 04:11:00,
2013-08-24 22:26:00,73.0,53.0,25.64,NNW,342,4.0,5.0,50,0.00,,,0.00,weatherlink.com 1.10,2013-08-25 04:26:00,
2013-08-24 22:41:00,73.0,54.0,25.64,NNW,345,0.0,2.0,51,0.00,,,0.00,weatherlink.com 1.10,2013-08-25 04:41:00,
2013-08-24 22:56:00,71.1,53.0,25.64,SE,143,0.0,0.0,53,0.00,,,0.00,weatherlink.com 1.10,2013-08-25 04:56:00,
2013-08-24 23:26:00,69.3,54.0,25.64,WSW,256,0.0,1.0,58,0.00,,,0.00,weatherlink.com 1.10,2013-08-25 05:26:00,
2013-08-24 23:41:00,68.6,54.0,25.64,WSW,245,0.0,1.0,59,0.00,,,0.00,weatherlink.com 1.10,2013-08-25 05:41:00,
2013-08-24 23:56:00,67.5,54.0,25.65,SE,128,5.0,5.0,63,0.00,,,0.00,weatherlink.com 1.10,2013-08-25 05:56:00,